User: anonymous   Login
Location: Unspecified
(0.0000°N, 0.0000°E)
Time: 01:06:10
(UTC+00:00)
Language:

STARLINK-11127 [DTC] - Orbit

View from above orbital plane
View from above orbital plane
View from above satellite
View from above satellite

Ground track
Ground track

The orbit is defined by the following mean orbital elements,

1 60119U          26145.41118071 +.00000000 +00000-0 +30742-5 0 00002
2 60119  53.1593 203.0255 0001182  72.3398 287.7749 15.69703278    08
Epoch (UTC): 25 May 2026 09:52:06
Eccentricity: 0.0001182
inclination: 53.1593°
perigee height: 359 km
apogee height: 361 km
right ascension of ascending node: 203.0255°
argument of perigee: 72.3398°
revolutions per day: 15.69703278
mean anomaly at epoch: 287.7749°

The dashed part of the orbit path shows where the satellite is in the earth's shadow,  

DLR